RYR142H LICJ-LIPX

Flight info

Callsign RYR142H
Flight time 1h 31m
Altitude 36000
Route LURON DCT LOMED DCT IPLUB DCT NIGSO DCT LUPOS DCT RIPDU L995 OSBUL
Aircraft B738/M-SDE2E3FGHIRWXY/LB1

Departure

Time 2026-05-05 14:46
Airport Falcone–Borsellino Airport (LICJ)

Arrival

Time 2026-05-05 16:17
Airport Verona Villafranca Valerio Catullo Airport (LIPX)
Time Latitude Longitude Altitude Speed Heading
2026-05-05 14:21 38.18303 13.10156 56 ft 0 kts 67°
2026-05-05 14:37 38.18299 13.10142 64 ft 5 kts 74°
2026-05-05 14:38 38.18295 13.10121 55 ft 4 kts 95°
2026-05-05 14:38 38.18304 13.10092 55 ft 4 kts 141°
2026-05-05 14:38 38.18315 13.10082 55 ft 0 kts 157°
2026-05-05 14:41 38.18314 13.10083 64 ft 0 kts 157°
2026-05-05 14:42 38.18307 13.10086 58 ft 2 kts 156°
2026-05-05 14:42 38.18276 13.10104 56 ft 8 kts 157°
2026-05-05 14:42 38.18191 13.10147 63 ft 15 kts 158°
2026-05-05 14:42 38.18119 13.10080 64 ft 15 kts 248°
2026-05-05 14:43 38.18073 13.09945 61 ft 21 kts 246°
2026-05-05 14:43 38.18007 13.09748 63 ft 26 kts 247°
2026-05-05 14:43 38.17940 13.09547 64 ft 24 kts 247°
2026-05-05 14:43 38.17877 13.09358 67 ft 23 kts 246°
2026-05-05 14:44 38.17815 13.09177 62 ft 22 kts 246°
2026-05-05 14:44 38.17747 13.08987 61 ft 23 kts 240°
2026-05-05 14:44 38.17634 13.08849 62 ft 22 kts 217°
2026-05-05 14:44 38.17519 13.08758 64 ft 14 kts 181°
2026-05-05 14:45 38.17499 13.08854 65 ft 14 kts 65°
2026-05-05 14:45 38.17554 13.09016 69 ft 40 kts 67°
2026-05-05 14:45 38.17754 13.09610 62 ft 105 kts 66°
2026-05-05 14:45 38.18115 13.10675 103 ft 153 kts 64°
2026-05-05 14:46 38.18588 13.11964 647 ft 163 kts 64°
2026-05-05 14:46 38.19113 13.13285 1304 ft 172 kts 64°
2026-05-05 14:46 38.19658 13.14652 1948 ft 178 kts 66°
2026-05-05 14:46 38.20159 13.16159 2492 ft 196 kts 69°
2026-05-05 14:47 38.20692 13.17869 2726 ft 220 kts 69°
2026-05-05 14:47 38.21444 13.19628 3065 ft 235 kts 47°
2026-05-05 14:47 38.22878 13.20700 3593 ft 244 kts 24°
2026-05-05 14:47 38.24470 13.21534 4182 ft 249 kts 23°
2026-05-05 14:48 38.26087 13.22373 4776 ft 254 kts 23°
2026-05-05 14:48 38.27718 13.23224 5353 ft 257 kts 22°
2026-05-05 14:48 38.29379 13.24095 5987 ft 260 kts 22°
2026-05-05 14:48 38.31099 13.25003 6400 ft 278 kts 22°
2026-05-05 14:49 38.32937 13.25942 6921 ft 289 kts 15°
2026-05-05 14:49 38.34917 13.26047 7678 ft 288 kts 348°
2026-05-05 14:49 38.36868 13.25488 8502 ft 288 kts 343°
2026-05-05 14:49 38.38829 13.24877 9263 ft 292 kts 343°
2026-05-05 14:50 38.40820 13.24262 9984 ft 297 kts 343°
2026-05-05 14:50 38.42859 13.23646 10463 ft 310 kts 343°
2026-05-05 14:50 38.45041 13.23001 10631 ft 333 kts 343°
2026-05-05 14:50 38.47355 13.22334 11052 ft 346 kts 344°
2026-05-05 14:51 38.49719 13.21667 11708 ft 350 kts 343°
2026-05-05 14:51 38.52107 13.21001 12443 ft 353 kts 343°
2026-05-05 14:51 38.54513 13.20334 13178 ft 356 kts 343°
2026-05-05 14:51 38.56943 13.19660 13924 ft 359 kts 343°
2026-05-05 14:52 38.59397 13.18980 14617 ft 362 kts 343°
2026-05-05 14:52 38.61858 13.18298 15372 ft 363 kts 343°
2026-05-05 14:52 38.64335 13.17610 16126 ft 365 kts 343°
2026-05-05 14:52 38.66823 13.16919 16850 ft 368 kts 343°
2026-05-05 14:53 38.69336 13.16220 17539 ft 371 kts 343°
2026-05-05 14:53 38.71865 13.15515 18235 ft 374 kts 343°
2026-05-05 14:53 38.74417 13.14804 18848 ft 377 kts 343°
2026-05-05 14:53 38.76988 13.14088 19399 ft 381 kts 343°
2026-05-05 14:54 38.79554 13.13372 19951 ft 384 kts 343°
2026-05-05 14:54 38.82187 13.12637 20456 ft 390 kts 343°
2026-05-05 14:54 38.84850 13.11892 21016 ft 394 kts 343°
2026-05-05 14:54 38.87519 13.11077 21642 ft 394 kts 341°
2026-05-05 14:55 38.90164 13.10126 22225 ft 397 kts 339°
2026-05-05 14:55 38.92819 13.09109 22770 ft 400 kts 339°
2026-05-05 14:55 38.95496 13.08064 23310 ft 404 kts 338°
2026-05-05 14:55 38.98198 13.07011 23806 ft 407 kts 338°
2026-05-05 14:56 39.00918 13.05959 24267 ft 410 kts 339°
2026-05-05 14:56 39.03655 13.04908 24743 ft 411 kts 339°
2026-05-05 14:56 39.06404 13.03859 25217 ft 413 kts 339°
2026-05-05 14:56 39.09164 13.02808 25686 ft 414 kts 339°
2026-05-05 14:57 39.11932 13.01756 26133 ft 415 kts 339°
2026-05-05 14:57 39.14711 13.00700 26532 ft 418 kts 339°
2026-05-05 14:57 39.17510 12.99636 26929 ft 421 kts 338°
2026-05-05 14:57 39.20324 12.98566 27306 ft 423 kts 338°
2026-05-05 14:58 39.23158 12.97487 27701 ft 425 kts 338°
2026-05-05 14:58 39.26002 12.96404 28086 ft 427 kts 338°
2026-05-05 14:58 39.28855 12.95316 28469 ft 429 kts 338°
2026-05-05 14:58 39.31727 12.94220 28834 ft 431 kts 338°
2026-05-05 14:59 39.34615 12.93117 29179 ft 434 kts 338°
2026-05-05 14:59 39.37519 12.92006 29516 ft 436 kts 338°
2026-05-05 14:59 39.40435 12.90890 29848 ft 439 kts 338°
2026-05-05 14:59 39.43368 12.89767 30197 ft 440 kts 338°
2026-05-05 15:00 39.46297 12.88646 30618 ft 438 kts 338°
2026-05-05 15:00 39.48223 12.87910 30950 ft 435 kts 338°
2026-05-05 15:00 39.52092 12.86428 31495 ft 433 kts 338°
2026-05-05 15:00 39.54982 12.85318 31853 ft 433 kts 337°
2026-05-05 15:01 39.57866 12.84208 32203 ft 433 kts 337°
2026-05-05 15:01 39.60754 12.83096 32593 ft 432 kts 337°
2026-05-05 15:01 39.63627 12.81989 32981 ft 430 kts 337°
2026-05-05 15:01 39.66456 12.80898 33331 ft 430 kts 337°
2026-05-05 15:02 39.69318 12.79793 33672 ft 429 kts 337°
2026-05-05 15:02 39.72185 12.78685 34024 ft 428 kts 337°
2026-05-05 15:02 39.75032 12.77585 34350 ft 427 kts 337°
2026-05-05 15:02 39.77873 12.76486 34736 ft 424 kts 338°
2026-05-05 15:03 39.80689 12.75397 35146 ft 420 kts 338°
2026-05-05 15:03 39.83481 12.74316 35455 ft 419 kts 337°
2026-05-05 15:03 39.86279 12.73230 35710 ft 419 kts 337°
2026-05-05 15:03 39.89074 12.72143 35948 ft 419 kts 337°
2026-05-05 15:04 39.94698 12.69951 36048 ft 424 kts 337°
2026-05-05 15:04 40.00335 12.67757 36035 ft 419 kts 337°
2026-05-05 15:05 40.08659 12.64512 36051 ft 415 kts 337°
2026-05-05 15:06 40.14194 12.62345 36048 ft 415 kts 337°
2026-05-05 15:06 40.19730 12.60175 36049 ft 416 kts 337°
2026-05-05 15:07 40.25240 12.58012 36055 ft 416 kts 337°
2026-05-05 15:07 40.30791 12.55829 36045 ft 417 kts 337°
2026-05-05 15:08 40.36354 12.53638 36047 ft 418 kts 337°
2026-05-05 15:08 40.41924 12.51441 36045 ft 418 kts 337°
2026-05-05 15:09 40.47500 12.49238 36063 ft 418 kts 336°
2026-05-05 15:09 40.53071 12.47032 36041 ft 418 kts 336°
2026-05-05 15:10 40.58646 12.44821 36041 ft 418 kts 336°
2026-05-05 15:10 40.64223 12.42606 36044 ft 418 kts 336°
2026-05-05 15:11 40.69754 12.40405 36068 ft 418 kts 336°
2026-05-05 15:11 40.75324 12.38185 36053 ft 418 kts 336°
2026-05-05 15:12 40.80904 12.35956 36044 ft 418 kts 336°
2026-05-05 15:12 40.86464 12.33733 36046 ft 418 kts 336°
2026-05-05 15:13 40.92025 12.31504 36049 ft 417 kts 336°
2026-05-05 15:13 40.97557 12.29283 36040 ft 418 kts 336°
2026-05-05 15:14 41.03121 12.27045 36040 ft 418 kts 336°
2026-05-05 15:14 41.08691 12.24801 36043 ft 418 kts 336°
2026-05-05 15:15 41.14257 12.22555 36053 ft 418 kts 335°
2026-05-05 15:15 41.19805 12.20312 36053 ft 418 kts 335°
2026-05-05 15:16 41.25385 12.18051 36052 ft 419 kts 335°
2026-05-05 15:16 41.30950 12.15793 36039 ft 420 kts 335°
2026-05-05 15:17 41.36541 12.13521 36051 ft 420 kts 335°
2026-05-05 15:17 41.42134 12.11244 36038 ft 420 kts 335°
2026-05-05 15:18 41.47712 12.08970 36041 ft 419 kts 335°
2026-05-05 15:18 41.53281 12.06694 36039 ft 418 kts 335°
2026-05-05 15:19 41.58836 12.04420 36054 ft 418 kts 335°
2026-05-05 15:19 41.64390 12.02142 36047 ft 417 kts 335°
2026-05-05 15:20 41.69939 11.99862 36049 ft 417 kts 335°
2026-05-05 15:20 41.75476 11.97582 36056 ft 416 kts 334°
2026-05-05 15:21 41.81012 11.95299 36070 ft 416 kts 334°
2026-05-05 15:21 41.86517 11.93024 36075 ft 417 kts 334°
2026-05-05 15:22 41.92072 11.90724 36066 ft 418 kts 334°
2026-05-05 15:22 41.97641 11.88415 36055 ft 418 kts 334°
2026-05-05 15:23 42.03202 11.86106 36059 ft 418 kts 334°
2026-05-05 15:23 42.08768 11.83790 36051 ft 419 kts 334°
2026-05-05 15:24 42.14343 11.81466 36038 ft 419 kts 334°
2026-05-05 15:24 42.19920 11.79136 36036 ft 420 kts 334°
2026-05-05 15:25 42.25505 11.76799 36041 ft 421 kts 334°
2026-05-05 15:25 42.31097 11.74455 36040 ft 420 kts 334°
2026-05-05 15:26 42.36677 11.72112 36037 ft 420 kts 334°
2026-05-05 15:26 42.42266 11.69760 36045 ft 420 kts 334°
2026-05-05 15:27 42.47817 11.67420 36042 ft 420 kts 334°
2026-05-05 15:27 42.53405 11.65059 36035 ft 420 kts 334°
2026-05-05 15:28 42.58045 11.63096 36032 ft 420 kts 334°
2026-05-05 15:28 42.63622 11.60733 36023 ft 420 kts 334°
2026-05-05 15:29 42.69204 11.58363 36021 ft 420 kts 334°
2026-05-05 15:29 42.74778 11.55992 36017 ft 419 kts 334°
2026-05-05 15:30 42.80347 11.53618 36015 ft 420 kts 334°
2026-05-05 15:30 42.85918 11.51238 36038 ft 420 kts 334°
2026-05-05 15:31 42.91511 11.48845 36019 ft 421 kts 334°
2026-05-05 15:31 42.97108 11.46446 36021 ft 422 kts 334°
2026-05-05 15:32 43.02711 11.44038 36001 ft 423 kts 334°
2026-05-05 15:32 43.08322 11.41625 36013 ft 422 kts 334°
2026-05-05 15:33 43.13922 11.39213 36010 ft 421 kts 334°
2026-05-05 15:33 43.19507 11.36800 35999 ft 421 kts 334°
2026-05-05 15:34 43.25076 11.34391 35869 ft 418 kts 334°
2026-05-05 15:34 43.27838 11.33197 35585 ft 412 kts 334°
2026-05-05 15:34 43.30558 11.32022 35184 ft 408 kts 333°
2026-05-05 15:34 43.33250 11.30856 34834 ft 404 kts 333°
2026-05-05 15:35 43.35920 11.29696 34466 ft 401 kts 333°
2026-05-05 15:35 43.38573 11.28541 34078 ft 399 kts 332°
2026-05-05 15:35 43.41209 11.27392 33661 ft 396 kts 332°
2026-05-05 15:35 43.43828 11.26249 33253 ft 394 kts 332°
2026-05-05 15:36 43.46431 11.25112 32856 ft 391 kts 332°
2026-05-05 15:36 43.49013 11.23985 32496 ft 388 kts 333°
2026-05-05 15:36 43.51582 11.22861 32132 ft 386 kts 333°
2026-05-05 15:36 43.54138 11.21742 31764 ft 385 kts 333°
2026-05-05 15:37 43.56682 11.20628 31396 ft 382 kts 333°
2026-05-05 15:37 43.59161 11.19542 31035 ft 379 kts 333°
2026-05-05 15:37 43.61659 11.18447 30687 ft 375 kts 333°
2026-05-05 15:37 43.64137 11.17359 30346 ft 372 kts 334°
2026-05-05 15:38 43.66603 11.16275 29992 ft 370 kts 334°
2026-05-05 15:38 43.69055 11.15196 29599 ft 369 kts 334°
2026-05-05 15:38 43.71495 11.14122 29196 ft 366 kts 334°
2026-05-05 15:38 43.73918 11.13055 28803 ft 363 kts 334°
2026-05-05 15:39 43.76323 11.11996 28449 ft 360 kts 334°
2026-05-05 15:39 43.78670 11.10960 28092 ft 357 kts 334°
2026-05-05 15:39 43.81030 11.09918 27730 ft 354 kts 334°
2026-05-05 15:39 43.83369 11.08884 27382 ft 352 kts 334°
2026-05-05 15:40 43.85699 11.07852 27026 ft 349 kts 334°
2026-05-05 15:40 43.88008 11.06829 26689 ft 347 kts 334°
2026-05-05 15:40 43.90308 11.05810 26357 ft 345 kts 334°
2026-05-05 15:40 43.92594 11.04795 26014 ft 344 kts 334°
2026-05-05 15:41 43.94867 11.03785 25673 ft 343 kts 334°
2026-05-05 15:41 43.97132 11.02778 25319 ft 341 kts 334°
2026-05-05 15:41 43.99367 11.01786 24978 ft 340 kts 334°
2026-05-05 15:41 44.01612 11.00784 24661 ft 337 kts 333°
2026-05-05 15:42 44.03742 10.99496 24223 ft 331 kts 322°
2026-05-05 15:42 44.05700 10.97821 23825 ft 330 kts 320°
2026-05-05 15:42 44.07638 10.96085 23404 ft 331 kts 320°
2026-05-05 15:42 44.09573 10.94348 23056 ft 329 kts 320°
2026-05-05 15:43 44.11504 10.92626 22690 ft 328 kts 320°
2026-05-05 15:43 44.13407 10.90940 22329 ft 326 kts 320°
2026-05-05 15:43 44.15318 10.89253 21971 ft 324 kts 320°
2026-05-05 15:43 44.17206 10.87591 21701 ft 317 kts 321°
2026-05-05 15:44 44.19069 10.85955 21361 ft 316 kts 320°
2026-05-05 15:44 44.20922 10.84323 21030 ft 314 kts 320°
2026-05-05 15:44 44.22772 10.82694 20699 ft 313 kts 321°
2026-05-05 15:44 44.24594 10.81092 20381 ft 312 kts 322°
2026-05-05 15:45 44.26518 10.79639 19992 ft 316 kts 327°
2026-05-05 15:45 44.28505 10.78314 19671 ft 316 kts 328°
2026-05-05 15:45 44.30496 10.77014 19349 ft 315 kts 328°
2026-05-05 15:45 44.32474 10.75708 19029 ft 314 kts 328°
2026-05-05 15:46 44.34439 10.74392 18706 ft 313 kts 328°
2026-05-05 15:46 44.36399 10.73069 18378 ft 312 kts 328°
2026-05-05 15:46 44.38350 10.71749 18050 ft 311 kts 328°
2026-05-05 15:46 44.40191 10.70223 17691 ft 303 kts 316°
2026-05-05 15:47 44.41831 10.68413 17453 ft 300 kts 317°
2026-05-05 15:47 44.42958 10.67285 17262 ft 302 kts 319°
2026-05-05 15:47 44.45329 10.65031 16943 ft 312 kts 320°
2026-05-05 15:47 44.47139 10.63325 16685 ft 315 kts 320°
2026-05-05 15:48 44.48933 10.61627 16436 ft 315 kts 320°
2026-05-05 15:48 44.50768 10.59959 16208 ft 316 kts 327°
2026-05-05 15:48 44.52894 10.59068 15904 ft 324 kts 347°
2026-05-05 15:48 44.55138 10.58742 15651 ft 323 kts 349°
2026-05-05 15:49 44.57384 10.58499 15264 ft 324 kts 350°
2026-05-05 15:49 44.59630 10.58272 14966 ft 322 kts 351°
2026-05-05 15:49 44.61856 10.58044 14683 ft 320 kts 350°
2026-05-05 15:49 44.64068 10.57808 14385 ft 318 kts 350°
2026-05-05 15:50 44.66266 10.57564 14097 ft 316 kts 350°
2026-05-05 15:50 44.68450 10.57316 13819 ft 314 kts 349°
2026-05-05 15:50 44.70619 10.57066 13501 ft 312 kts 350°
2026-05-05 15:50 44.72776 10.56815 13129 ft 307 kts 350°
2026-05-05 15:51 44.74907 10.56566 12599 ft 306 kts 350°
2026-05-05 15:51 44.77032 10.56315 12069 ft 306 kts 350°
2026-05-05 15:51 44.79125 10.56067 11604 ft 304 kts 350°
2026-05-05 15:51 44.81222 10.55820 11143 ft 303 kts 351°
2026-05-05 15:52 44.83319 10.55571 10885 ft 300 kts 351°
2026-05-05 15:52 44.85406 10.55325 10706 ft 294 kts 351°
2026-05-05 15:52 44.87408 10.55089 10466 ft 292 kts 351°
2026-05-05 15:52 44.89427 10.54848 10168 ft 291 kts 351°
2026-05-05 15:53 44.91446 10.54608 9888 ft 291 kts 351°
2026-05-05 15:53 44.93461 10.54368 9584 ft 290 kts 351°
2026-05-05 15:53 44.95471 10.54129 9292 ft 288 kts 351°
2026-05-05 15:53 44.97465 10.53892 9005 ft 286 kts 351°
2026-05-05 15:54 44.99446 10.53656 8717 ft 285 kts 351°
2026-05-05 15:54 45.01423 10.53420 8418 ft 284 kts 351°
2026-05-05 15:54 45.03396 10.53184 8143 ft 283 kts 351°
2026-05-05 15:54 45.05359 10.52950 7860 ft 282 kts 351°
2026-05-05 15:55 45.07283 10.52721 7641 ft 278 kts 351°
2026-05-05 15:55 45.09188 10.52496 7546 ft 269 kts 351°
2026-05-05 15:55 45.11030 10.52277 7459 ft 261 kts 351°
2026-05-05 15:55 45.12816 10.52094 7382 ft 254 kts 357°
2026-05-05 15:56 45.14493 10.52790 7235 ft 255 kts 32°
2026-05-05 15:56 45.15870 10.54377 7037 ft 254 kts 40°
2026-05-05 15:56 45.17160 10.56087 6793 ft 254 kts 43°
2026-05-05 15:56 45.18403 10.57859 6559 ft 254 kts 45°
2026-05-05 15:57 45.19610 10.59626 6374 ft 250 kts 45°
2026-05-05 15:57 45.20807 10.61387 6235 ft 245 kts 45°
2026-05-05 15:57 45.21962 10.63084 6195 ft 231 kts 45°
2026-05-05 15:57 45.23064 10.64700 5963 ft 226 kts 45°
2026-05-05 15:58 45.24152 10.66294 5697 ft 223 kts 45°
2026-05-05 15:58 45.25224 10.67864 5425 ft 220 kts 45°
2026-05-05 15:58 45.26287 10.69422 5155 ft 218 kts 45°
2026-05-05 15:58 45.27332 10.70951 4966 ft 211 kts 45°
2026-05-05 15:59 45.28336 10.72421 4764 ft 205 kts 45°
2026-05-05 15:59 45.29309 10.73845 4461 ft 201 kts 45°
2026-05-05 15:59 45.30259 10.75236 4304 ft 188 kts 45°
2026-05-05 15:59 45.31175 10.76576 3888 ft 193 kts 45°
2026-05-05 16:00 45.32119 10.77957 3447 ft 196 kts 46°
2026-05-05 16:00 45.33069 10.79347 3067 ft 193 kts 46°
2026-05-05 16:00 45.33948 10.80632 2992 ft 176 kts 46°
2026-05-05 16:00 45.34802 10.81882 3005 ft 177 kts 46°
2026-05-05 16:01 45.35663 10.83139 3001 ft 177 kts 46°
2026-05-05 16:01 45.36519 10.84391 2999 ft 178 kts 46°
2026-05-05 16:01 45.37430 10.85723 3012 ft 194 kts 46°
2026-05-05 16:01 45.38385 10.87120 3017 ft 211 kts 46°
2026-05-05 16:02 45.39540 10.88824 3063 ft 265 kts 46°
2026-05-05 16:02 45.40729 10.91076 2995 ft 302 kts 67°
2026-05-05 16:02 45.41002 10.93948 2986 ft 288 kts 99°
2026-05-05 16:02 45.40219 10.96366 2980 ft 266 kts 133°
2026-05-05 16:03 45.38690 10.97631 2998 ft 247 kts 169°
2026-05-05 16:03 45.37047 10.97704 3000 ft 228 kts 184°
2026-05-05 16:03 45.35552 10.97311 2979 ft 210 kts 198°
2026-05-05 16:03 45.34284 10.96461 2983 ft 197 kts 216°
2026-05-05 16:04 45.33268 10.95174 3005 ft 195 kts 224°
2026-05-05 16:04 45.32291 10.93829 3008 ft 196 kts 224°
2026-05-05 16:04 45.31312 10.92479 3008 ft 196 kts 224°
2026-05-05 16:04 45.30331 10.91124 3006 ft 197 kts 224°
2026-05-05 16:05 45.29348 10.89769 3011 ft 197 kts 224°
2026-05-05 16:05 45.28364 10.88412 3005 ft 197 kts 224°
2026-05-05 16:05 45.27373 10.87047 3002 ft 198 kts 224°
2026-05-05 16:05 45.26385 10.85686 3002 ft 197 kts 223°
2026-05-05 16:06 45.25413 10.84348 3007 ft 196 kts 224°
2026-05-05 16:06 45.24433 10.83000 2996 ft 195 kts 224°
2026-05-05 16:06 45.23459 10.81661 2993 ft 194 kts 224°
2026-05-05 16:06 45.22492 10.80333 2972 ft 193 kts 224°
2026-05-05 16:07 45.21527 10.79007 2968 ft 192 kts 224°
2026-05-05 16:07 45.20571 10.77694 2975 ft 191 kts 224°
2026-05-05 16:07 45.19618 10.76386 2969 ft 190 kts 224°
2026-05-05 16:07 45.18667 10.75083 2978 ft 190 kts 224°
2026-05-05 16:08 45.17718 10.73783 2975 ft 190 kts 224°
2026-05-05 16:08 45.16766 10.72480 2978 ft 190 kts 224°
2026-05-05 16:08 45.15819 10.71184 2990 ft 188 kts 224°
2026-05-05 16:08 45.14933 10.69845 2974 ft 186 kts 239°
2026-05-05 16:09 45.14703 10.68085 2987 ft 187 kts 281°
2026-05-05 16:09 45.15329 10.66481 2997 ft 190 kts 313°
2026-05-05 16:09 45.16292 10.65157 2989 ft 195 kts 314°
2026-05-05 16:09 45.17264 10.63817 2981 ft 194 kts 315°
2026-05-05 16:10 45.18214 10.62511 2984 ft 191 kts 315°
2026-05-05 16:10 45.19280 10.61421 2961 ft 190 kts 345°
2026-05-05 16:10 45.20542 10.61649 2993 ft 189 kts 33°
2026-05-05 16:10 45.21586 10.62819 3006 ft 194 kts 40°
2026-05-05 16:11 45.22592 10.64100 2988 ft 194 kts 44°
2026-05-05 16:11 45.25280 10.67946 2979 ft 176 kts 46°
2026-05-05 16:12 45.25845 10.68773 2987 ft 176 kts 46°
2026-05-05 16:12 45.27560 10.71286 3001 ft 177 kts 46°
2026-05-05 16:13 45.30136 10.75055 2744 ft 179 kts 47°
2026-05-05 16:13 45.30985 10.76297 2509 ft 170 kts 47°
2026-05-05 16:13 45.31785 10.77470 2273 ft 160 kts 47°
2026-05-05 16:14 45.33233 10.79578 1914 ft 144 kts 49°
2026-05-05 16:14 45.34572 10.81573 1527 ft 138 kts 47°
2026-05-05 16:15 45.35886 10.83484 1125 ft 133 kts 47°
2026-05-05 16:15 45.37167 10.85332 758 ft 135 kts 47°
2026-05-05 16:16 45.38468 10.87242 388 ft 132 kts 47°
2026-05-05 16:16 45.39619 10.88930 239 ft 95 kts 46°
2026-05-05 16:17 45.40129 10.89669 245 ft 38 kts 46°
2026-05-05 16:17 45.40245 10.89838 245 ft 22 kts 47°
2026-05-05 16:18 45.40330 10.90227 242 ft 17 kts 77°
2026-05-05 16:18 45.40312 10.90307 241 ft 3 kts 134°
2026-05-05 16:18 45.40271 10.90360 241 ft 8 kts 134°
2026-05-05 16:19 45.40279 10.90446 241 ft 11 kts 46°
2026-05-05 16:19 45.40327 10.90525 241 ft 10 kts 68°
2026-05-05 16:19 45.40298 10.90597 241 ft 0 kts 136°